Powrót do katalogu

STARLINK-35660

AktywnyŁącznośćVLEO
NORAD 67003·PAYLOAD·🇺🇸 United States

Wystrzelony Dec 10, 2025 z Vandenberg Space Force Base

Loading…

Następne Przeloty (najbliższe 24 godziny)

TLE

ŚwieżeSource: CelesTrak SupGP

Epoka: Sep 15, 2026, 04:11 UTC

1 67003C 25293A   26258.17479167  .00043533  00000+0  36462-2 0  2580
2 67003  70.0021 336.8997 0003482 275.1418 165.8945 14.98329342    12

Śledź STARLINK-35660 w czasie rzeczywistym z AllMySat

Download on the App Store